[[{"header":{"parameterUnit":"m.s-1","parameterCategory":2,"la1":30.2991,"la2":30.254,"lo1":-89.0895,"lo2":-89.0444,"dy":0.0017,"dx":0.0017,"nx":28,"ny":28,"refTime":"2025-09-14T03:00:00:Z","depth":"0","parameterNumber":2,"parameterNumberName":"U-component_of_CURRENTS"},"data":[0,0,0,0,0,0,0,0,0,0,0,0,0,0,0,0,0,0,0,0,0,0,0,0,0,0,0,0,0,0,0,0,0,0,0,0,0,0,0,0,0,0,0,0,0,0,0,0,0,0,0,0,0,0,0,0,0,0,-0.1883,-0.1884,0,-0.19,-0.1899,-0.1899,-0.1873,-0.1873,-0.1873,-0.1873,-0.1737,-0.1734,-0.173,0,0,0,0,0,0,0,0,0,0,0,0,0,-0.1718,-0.1721,-0.1883,-0.1884,-0.1885,-0.19,-0.1899,-0.1899,-0.1873,-0.1873,-0.1873,-0.1873,-0.1738,-0.1734,-0.173,0,0,0,0,0,0,0,0,0,0,0,0,0,-0.176,-0.1722,-0.1883,-0.188,-0.1881,-0.19,-0.1899,-0.1899,-0.1873,-0.1873,-0.1873,-0.1873,-0.174,-0.1735,-0.173,-0.1701,0,0,-0.1714,-0.1711,0,0,0,0,0,0,0,0,-0.1758,-0.1765,-0.188,-0.188,-0.1881,-0.1892,-0.1792,-0.1828,-0.1873,-0.1867,-0.1873,-0.1873,-0.178,-0.1772,-0.1766,-0.1695,-0.1689,-0.1713,-0.171,-0.1708,-0.1706,0,0,0,0,0,0,0,-0.1755,-0.1764,-0.1881,-0.1881,-0.1882,-0.1841,-0.1847,-0.1798,-0.1815,-0.1868,-0.1868,-0.1883,-0.1778,-0.1771,-0.1762,-0.1687,-0.1713,-0.1709,-0.1705,-0.1703,-0.1552,-0.1552,0,0,0,0,0,0,-0.1777,-0.1762,-0.1881,-0.1883,-0.1827,-0.1845,-0.1851,-0.1882,-0.1819,-0.1813,-0.1884,-0.1882,-0.178,-0.1768,-0.1757,-0.1761,-0.1708,-0.1703,-0.17,-0.1553,-0.1552,-0.1551,0,0,0,0,0,0,-0.1773,-0.1788,-0.188,-0.1828,-0.1838,-0.185,-0.1883,-0.1882,-0.1885,-0.1835,-0.1824,-0.189,-0.1779,-0.1764,-0.1705,-0.1754,-0.17,-0.1696,-0.1554,-0.1553,-0.1552,-0.1741,0,0,0,0,0,0,-0.1769,-0.1787,-0.1807,-0.183,-0.1842,-0.1898,-0.1884,-0.1883,-0.1899,-0.1897,-0.1836,-0.1823,-0.1778,-0.1713,-0.17,-0.1745,-0.1692,-0.1555,-0.1554,-0.1552,-0.1736,-0.1747,-0.1756,0,0,0,0,0,-0.1763,-0.1803,-0.1809,-0.1823,-0.1874,-0.1899,-0.19,-0.19,-0.1899,-0.1901,-0.1849,-0.1825,-0.1693,-0.1708,-0.1693,-0.1738,-0.1556,-0.1554,-0.1552,-0.1732,-0.1745,-0.1755,0,0,0,0,0,0,-0.1743,-0.1806,-0.1812,-0.1869,-0.1884,-0.1898,-0.1911,-0.191,-0.1875,-0.187,-0.1812,-0.1795,-0.1753,-0.1701,-0.172,-0.1679,-0.1622,-0.1616,-0.1763,-0.1774,-0.1784,-0.1849,-0.1687,0,0,0,0,0,-0.1752,-0.1793,-0.1834,-0.1872,-0.1891,-0.19,-0.191,-0.1913,-0.1896,-0.1883,-0.1836,-0.1778,-0.1731,-0.1719,-0.1648,-0.164,-0.1623,-0.1651,-0.1661,-0.167,-0.1706,-0.1763,-0.1785,-0.1545,-0.1545,-0.1545,0,0,-0.1753,-0.1793,-0.1815,-0.1869,-0.1884,-0.1916,-0.1904,-0.1932,-0.1954,-0.1869,-0.1861,-0.1795,-0.1723,-0.1704,-0.1685,-0.1678,-0.171,-0.1668,-0.1678,-0.1708,-0.1764,-0.1788,-0.181,-0.1543,-0.1544,-0.1544,0,0,-0.1776,-0.1816,-0.1856,-0.1878,-0.1918,-0.193,-0.1944,-0.1958,-0.1964,-0.1941,-0.1891,-0.1871,-0.1774,-0.1775,-0.1755,-0.1774,-0.1739,-0.1729,-0.1871,-0.1926,-0.195,-0.197,-0.1922,-0.1936,-0.1764,-0.1764,-0.1765,0,-0.1775,-0.1836,-0.1865,-0.1907,-0.194,-0.1944,-0.1989,-0.1996,-0.198,-0.2008,-0.1947,-0.189,-0.1825,-0.1876,-0.1876,-0.1811,-0.1794,-0.185,-0.1951,-0.1971,-0.1989,-0.1935,-0.1949,-0.1773,-0.1772,-0.1771,-0.177,0,-0.1826,-0.187,-0.1898,-0.1958,-0.1992,-0.2027,-0.2062,-0.2079,-0.2075,-0.2091,-0.211,-0.2037,-0.2018,-0.1998,-0.1941,-0.2042,-0.1965,-0.1946,-0.1951,-0.2027,-0.196,-0.1972,-0.1786,-0.1783,-0.178,-0.1778,0,0,-0.1835,-0.192,-0.1926,-0.197,-0.2027,-0.2067,-0.2122,-0.2193,-0.2261,-0.2234,-0.2315,-0.2263,-0.2248,-0.2222,-0.2175,-0.2243,-0.2318,-0.2164,-0.2162,-0.2165,-0.2376,-0.2262,-0.2262,-0.2338,-0.2343,-0.2346,-0.226,0,-0.1864,-0.1948,-0.1989,-0.2068,-0.2121,-0.2164,-0.2226,-0.2291,-0.2321,-0.2383,-0.2394,-0.2402,-0.233,-0.2322,-0.2388,-0.2318,-0.2366,-0.2339,-0.2257,-0.2253,-0.219,-0.228,-0.2151,-0.2062,-0.2271,-0.2273,-0.2274,0,-0.1898,-0.1957,-0.2034,-0.2155,-0.2188,-0.2226,-0.2359,-0.2413,-0.2516,-0.2544,-0.2604,-0.2578,-0.2633,-0.2557,-0.2569,-0.2553,-0.2485,-0.2448,-0.2444,-0.2296,-0.2166,-0.2024,-0.2074,-0.205,-0.2291,-0.229,-0.2288,0,-0.1885,-0.1997,-0.2062,-0.2094,-0.2216,-0.2269,-0.2334,-0.2453,-0.2522,-0.2634,-0.2663,-0.2749,-0.2703,-0.2735,-0.2598,-0.2602,-0.259,-0.2575,-0.2414,-0.2399,-0.2253,-0.222,-0.2324,-0.2625,-0.2625,-0.2625,-0.2626,0,-0.1898,-0.1954,-0.2054,-0.2082,-0.2194,-0.2277,-0.2399,-0.248,-0.2593,-0.265,-0.2721,-0.2729,-0.2749,-0.2712,-0.2663,-0.2542,-0.2626,-0.2463,-0.2409,-0.2298,-0.2272,-0.221,-0.2222,-0.2622,-0.2623,-0.2623,-0.2624,0,-0.1861,-0.1918,-0.2003,-0.2129,-0.2175,-0.2245,-0.2397,-0.2473,-0.2577,-0.2639,-0.2657,-0.2695,-0.2634,-0.2624,-0.2593,-0.2538,-0.2441,-0.2425,-0.2235,-0.2165,-0.2036,-0.206,-0.2091,-0.2038,-0.2287,-0.2284,-0.2282,0,-0.1849,-0.1879,-0.201,-0.2051,-0.2095,-0.2214,-0.2283,-0.2436,-0.2492,-0.2574,-0.2566,-0.2542,-0.2469,-0.2392,-0.2337,-0.2268,-0.2276,-0.2103,-0.2129,-0.2047,-0.2036,-0.2062,-0.2018,-0.1962,-0.1957,-0.1953,-0.195,0,-0.181,-0.1842,-0.1898,-0.1987,-0.2049,-0.2159,-0.2246,-0.2293,-0.2412,-0.2426,-0.2375,-0.2328,-0.224,-0.2106,-0.2033,-0.1988,-0.2064,-0.2021,-0.2028,-0.189,-0.1838,-0.1749,-0.1928,-0.1916,-0.1919,-0.1922,-0.1923,-0.1925,-0.1752,-0.1778,-0.1826,-0.1905,-0.1984,-0.2033,-0.2055,-0.211,-0.2131,-0.2087,-0.2128,-0.2006,-0.1938,-0.1822,-0.1776,-0.168,-0.178,-0.1648,-0.1701,-0.1747,-0.1685,-0.1747,-0.1631,-0.1633,-0.1634,-0.1636,-0.1637,0,-0.1659,-0.1683,-0.1745,-0.1811,-0.1845,-0.1924,-0.1973,-0.1928,-0.1839,-0.1829,-0.1749,-0.167,-0.1537,-0.1524,-0.1448,-0.139,-0.1387,-0.1378,-0.1415,-0.1399,-0.1514,-0.1489,-0.1228,-0.1228,-0.1228,-0.1228,-0.1228,-0.1228,-0.1597,-0.1593,-0.1625,-0.1631,-0.168,-0.1647,-0.163,-0.1531,-0.1495,-0.1356,-0.1318,-0.1349,-0.1351,-0.1425,-0.1326,-0.1262,-0.127,-0.1213,-0.1285,-0.1386,-0.1417,-0.1446,-0.1429,-0.116,-0.116,-0.1094,-0.1094,-0.1094]},{"header":{"parameterUnit":"m.s-1","parameterCategory":2,"la1":30.2991,"la2":30.254,"lo1":-89.0895,"lo2":-89.0444,"dy":0.0017,"dx":0.0017,"nx":28,"ny":28,"refTime":"2025-09-14T03:00:00:Z","depth":"0","parameterNumber":3,"parameterNumberName":"V-component_of_CURRENTS"},"data":[0,0,0,0,0,0,0,0,0,0,0,0,0,0,0,0,0,0,0,0,0,0,0,0,0,0,0,0,0,0,0,0,0,0,0,0,0,0,0,0,0,0,0,0,0,0,0,0,0,0,0,0,0,0,0,0,0,0,-0.0011,-0.001,0,0.0148,0.015,0.0152,0.0208,0.0207,0.0206,0.0205,0.0392,0.0398,0.0404,0,0,0,0,0,0,0,0,0,0,0,0,0,-0.0053,-0.0054,-0.0012,-0.001,-0.0009,0.0147,0.015,0.0153,0.0208,0.0207,0.0206,0.0204,0.039,0.0397,0.0405,0,0,0,0,0,0,0,0,0,0,0,0,0,0.0026,-0.0054,-0.0012,0.0033,0.0039,0.0147,0.015,0.0154,0.0209,0.0207,0.0205,0.0204,0.0388,0.0397,0.0406,0.0496,0,0,0.0433,0.0437,0,0,0,0,0,0,0,0,0.0022,0.0028,0.0025,0.003,0.0036,0.0151,0.0204,0.0267,0.0209,0.015,0.0205,0.0203,0.0312,0.0327,0.0369,0.0505,0.0513,0.0434,0.044,0.0444,0.0446,0,0,0,0,0,0,0,0.0016,0.0023,0.0058,0.0027,0.0034,0.0119,0.0127,0.0218,0.0244,0.0155,0.0158,0.0167,0.0315,0.036,0.0373,0.0516,0.0434,0.0442,0.0448,0.0451,0.0735,0.0737,0,0,0,0,0,0,-0.0025,0.0017,0.0052,0.0062,0.0018,0.012,0.0129,0.0121,0.0242,0.0257,0.0168,0.0169,0.0345,0.0363,0.038,0.0482,0.0444,0.0452,0.0457,0.0733,0.0735,0.0738,0,0,0,0,0,0,-0.0027,-0.0024,0.0046,0.004,0.0053,0.012,0.0112,0.0125,0.0166,0.0251,0.0267,0.0194,0.0345,0.0367,0.0477,0.049,0.0456,0.0464,0.073,0.0734,0.0737,0.0694,0,0,0,0,0,0,-0.0029,-0.0026,-0.0037,0.0036,0.0052,0.012,0.0113,0.0129,0.0171,0.0174,0.0279,0.0295,0.0345,0.0464,0.0486,0.0502,0.0472,0.0728,0.0732,0.0736,0.0693,0.0696,0.0698,0,0,0,0,0,-0.0031,-0.0042,-0.0039,-0.0034,0.0031,0.0121,0.014,0.0186,0.0174,0.0213,0.0281,0.0291,0.0503,0.0474,0.05,0.0518,0.0726,0.0731,0.0735,0.0692,0.0695,0.0698,0,0,0,0,0,0,-0.0065,-0.0036,-0.0031,-0.0034,0.004,0.0128,0.0156,0.0188,0.0273,0.0268,0.0338,0.0362,0.0456,0.0507,0.0472,0.0613,0.061,0.062,0.0568,0.0572,0.0574,0.0526,0.0479,0,0,0,0,0,-0.0081,-0.0086,-0.0021,-0.002,0.0009,0.0083,0.0122,0.016,0.0237,0.0272,0.0349,0.0425,0.0501,0.0549,0.0631,0.0725,0.073,0.075,0.0752,0.0754,0.0735,0.0782,0.0785,0.0753,0.0753,0.0753,0,0,-0.0096,-0.0081,-0.0083,-0.0027,0.0024,0.0086,0.0104,0.0166,0.0214,0.0282,0.0375,0.0444,0.0529,0.0624,0.0669,0.0666,0.0763,0.076,0.076,0.074,0.0787,0.079,0.0792,0.0756,0.0756,0.0755,0,0,-0.0105,-0.0111,-0.0101,-0.0039,0.0034,0.0084,0.0098,0.02,0.0238,0.0349,0.0388,0.0468,0.0609,0.0662,0.0704,0.0776,0.0774,0.08,0.0776,0.0822,0.0823,0.0825,0.0806,0.0807,0.08,0.08,0.08,0,-0.012,-0.011,-0.0075,-0.0026,0.0004,0.0078,0.0118,0.0189,0.0317,0.0336,0.0372,0.0543,0.0622,0.0696,0.0721,0.0777,0.0778,0.075,0.0819,0.0821,0.0824,0.0805,0.0806,0.0799,0.0799,0.0799,0.0799,0,-0.01,-0.0082,-0.0066,-0.0004,0.0045,0.0095,0.0178,0.0233,0.0279,0.0342,0.0435,0.0559,0.0638,0.0688,0.0732,0.0784,0.0769,0.0811,0.0796,0.0823,0.0803,0.0804,0.0797,0.0797,0.0798,0.0798,0,0,-0.0158,-0.0075,-0.0068,-0.0057,0.0052,0.0079,0.015,0.0215,0.0218,0.0366,0.0389,0.0545,0.0582,0.0632,0.07,0.0756,0.0779,0.0783,0.0786,0.0734,0.0826,0.0824,0.0825,0.0829,0.083,0.0831,0.0793,0,-0.0151,-0.0104,-0.0056,-0.0015,0.0011,0.0075,0.0116,0.018,0.0247,0.0304,0.0415,0.0485,0.0569,0.0598,0.067,0.076,0.0786,0.0782,0.0834,0.0834,0.0806,0.0829,0.0863,0.0834,0.0794,0.0794,0.0794,0,-0.0141,-0.0122,-0.0088,-0.0073,-0.0063,-0.0026,-0.0015,0.0041,0.0134,0.018,0.0272,0.0362,0.047,0.0541,0.068,0.0669,0.0728,0.0798,0.0799,0.081,0.0837,0.0811,0.0838,0.0982,0.0797,0.0796,0.0796,0,-0.0218,-0.0159,-0.0162,-0.0135,-0.0079,-0.0087,-0.0071,-0.0003,0.0006,0.0102,0.0124,0.0264,0.033,0.0457,0.0605,0.0639,0.0733,0.0802,0.0841,0.0838,0.0883,0.0884,0.1031,0.0867,0.0868,0.0868,0.0868,0,-0.0234,-0.0238,-0.0205,-0.0193,-0.0244,-0.0176,-0.0211,-0.0174,-0.0116,-0.0107,0.0047,0.0084,0.0316,0.0412,0.055,0.0683,0.0684,0.0821,0.084,0.0868,0.0869,0.101,0.1064,0.0866,0.0866,0.0867,0.0867,0,-0.029,-0.0255,-0.027,-0.0253,-0.0266,-0.0302,-0.0314,-0.0333,-0.0263,-0.024,-0.0213,-0.006,0.0085,0.0276,0.0466,0.0593,0.0807,0.0759,0.0742,0.0762,0.0978,0.1027,0.1132,0.1205,0.0821,0.0821,0.0821,0,-0.0308,-0.0311,-0.0338,-0.0382,-0.0375,-0.0419,-0.0454,-0.0413,-0.0413,-0.0329,-0.0322,-0.0185,-0.007,0.0184,0.0435,0.0644,0.0775,0.077,0.0874,0.0983,0.1053,0.1088,0.1146,0.0899,0.0899,0.09,0.09,0,-0.0349,-0.036,-0.038,-0.0471,-0.0526,-0.0586,-0.0614,-0.0638,-0.0572,-0.0539,-0.0472,-0.0374,-0.0096,0.0187,0.0457,0.0601,0.0885,0.0786,0.0935,0.1148,0.116,0.1242,0.088,0.0904,0.0904,0.0904,0.0903,0.0903,-0.0393,-0.0439,-0.0481,-0.0578,-0.0649,-0.0721,-0.0762,-0.0764,-0.0769,-0.0679,-0.0584,-0.0399,0.0018,0.0443,0.0585,0.0939,0.093,0.1087,0.1135,0.1157,0.1256,0.0863,0.09,0.0899,0.0899,0.0899,0.0898,0,-0.0443,-0.0503,-0.0594,-0.0697,-0.0794,-0.08,-0.085,-0.0857,-0.0853,-0.0725,-0.0618,-0.0156,0.0236,0.0623,0.1113,0.1297,0.1357,0.1387,0.1482,0.1526,0.122,0.1257,0.133,0.133,0.133,0.1329,0.1329,0.1329,-0.0476,-0.057,-0.0626,-0.08,-0.0873,-0.0956,-0.0977,-0.0955,-0.0862,-0.0636,-0.0368,-0.0142,0.0429,0.1168,0.161,0.1649,0.1822,0.1779,0.1863,0.17,0.1677,0.1656,0.1708,0.1875,0.1875,0.2183,0.2186,0.2188]}],[{"header":{"parameterUnit":"m.s-1","parameterCategory":2,"la1":30.2991,"la2":30.254,"lo1":-89.0895,"lo2":-89.0444,"dy":0.0017,"dx":0.0017,"nx":28,"ny":28,"refTime":"2025-09-14T03:00:00:Z","depth":"2","parameterNumber":2,"parameterNumberName":"U-component_of_CURRENTS"},"data":[0,0,0,0,0,0,0,0,0,0,0,0,0,0,0,0,0,0,0,0,0,0,0,0,0,0,0,0,0,0,0,0,0,0,0,0,0,0,0,0,0,0,0,0,0,0,0,0,0,0,0,0,0,0,0,0,0,0,-0.1832,-0.1832,0,-0.1831,-0.183,-0.183,-0.1798,-0.1798,-0.1798,-0.1798,-0.1645,-0.1641,-0.1637,0,0,0,0,0,0,0,0,0,0,0,0,0,-0.1805,-0.1805,-0.1832,-0.1832,-0.1833,-0.1831,-0.183,-0.1829,-0.1798,-0.1798,-0.1798,-0.1798,-0.1646,-0.1641,-0.1636,0,0,0,0,0,0,0,0,0,0,0,0,0,-0.1803,-0.1805,-0.1831,-0.1824,-0.1824,-0.1831,-0.183,-0.1829,-0.1798,-0.1798,-0.1798,-0.1798,-0.1648,-0.1642,-0.1636,-0.1599,0,0,-0.1617,-0.1614,0,0,0,0,0,0,0,0,-0.1803,-0.1803,-0.1824,-0.1824,-0.1824,-0.1822,-0.1765,-0.1748,-0.1798,-0.1798,-0.1798,-0.1798,-0.1695,-0.1686,-0.1675,-0.1592,-0.1585,-0.1616,-0.1613,-0.161,-0.1608,0,0,0,0,0,0,0,-0.1804,-0.1803,-0.1822,-0.1825,-0.1825,-0.1821,-0.1819,-0.1762,-0.1737,-0.1798,-0.1798,-0.1812,-0.1693,-0.1681,-0.1671,-0.1583,-0.1617,-0.1611,-0.1607,-0.1605,-0.1453,-0.1453,0,0,0,0,0,0,-0.1821,-0.1803,-0.1823,-0.1823,-0.1823,-0.1822,-0.182,-0.1816,-0.1741,-0.1734,-0.1812,-0.1811,-0.1692,-0.1678,-0.1665,-0.1654,-0.161,-0.1605,-0.1601,-0.1454,-0.1453,-0.1453,0,0,0,0,0,0,-0.182,-0.1822,-0.1823,-0.1821,-0.1822,-0.1823,-0.1818,-0.1816,-0.1814,-0.1755,-0.1743,-0.1816,-0.1691,-0.1674,-0.1603,-0.1646,-0.1602,-0.1596,-0.1454,-0.1453,-0.1453,-0.1606,0,0,0,0,0,0,-0.1819,-0.1821,-0.1815,-0.1822,-0.1823,-0.1829,-0.1819,-0.1816,-0.1827,-0.1825,-0.1754,-0.1739,-0.169,-0.1612,-0.1597,-0.1637,-0.1591,-0.1455,-0.1454,-0.1453,-0.1601,-0.161,-0.1618,0,0,0,0,0,-0.1818,-0.1822,-0.1814,-0.1816,-0.1816,-0.183,-0.1829,-0.1824,-0.1827,-0.1823,-0.1765,-0.1742,-0.1597,-0.1606,-0.1588,-0.1628,-0.1455,-0.1454,-0.1453,-0.1597,-0.1609,-0.1618,0,0,0,0,0,0,-0.1806,-0.1821,-0.1811,-0.1817,-0.1823,-0.1828,-0.1836,-0.1834,-0.179,-0.1787,-0.1723,-0.1703,-0.1656,-0.1606,-0.1617,-0.1576,-0.1528,-0.1523,-0.1643,-0.1653,-0.1662,-0.173,-0.1586,0,0,0,0,0,-0.1802,-0.1802,-0.1817,-0.1816,-0.1831,-0.1833,-0.1838,-0.1838,-0.1813,-0.1797,-0.1742,-0.1684,-0.1638,-0.1617,-0.1549,-0.1526,-0.1518,-0.1539,-0.1548,-0.1556,-0.1595,-0.1661,-0.1683,-0.145,-0.145,-0.145,0,0,-0.1789,-0.1805,-0.1797,-0.1813,-0.1821,-0.1842,-0.1834,-0.1854,-0.187,-0.1783,-0.1761,-0.1698,-0.1629,-0.16,-0.1579,-0.1569,-0.1597,-0.1555,-0.1563,-0.1599,-0.1663,-0.1687,-0.1708,-0.1449,-0.1449,-0.145,0,0,-0.1795,-0.179,-0.1804,-0.1815,-0.1845,-0.1852,-0.1865,-0.1869,-0.1872,-0.1837,-0.1792,-0.1763,-0.1664,-0.1657,-0.1636,-0.1649,-0.1627,-0.1618,-0.1741,-0.1805,-0.1827,-0.1847,-0.1797,-0.1811,-0.1642,-0.1643,-0.1643,0,-0.1785,-0.1802,-0.1808,-0.1838,-0.1863,-0.1865,-0.1899,-0.1902,-0.1872,-0.1903,-0.1839,-0.1783,-0.1706,-0.175,-0.1744,-0.168,-0.1676,-0.1718,-0.1826,-0.1846,-0.1864,-0.1808,-0.1823,-0.165,-0.1649,-0.1648,-0.1648,0,-0.1808,-0.1821,-0.184,-0.1873,-0.1897,-0.1924,-0.1951,-0.1968,-0.1964,-0.1975,-0.1994,-0.1905,-0.1888,-0.1861,-0.1799,-0.1897,-0.1833,-0.1823,-0.1823,-0.1898,-0.1831,-0.1843,-0.166,-0.1658,-0.1655,-0.1654,0,0,-0.179,-0.1846,-0.1849,-0.1889,-0.1925,-0.1961,-0.2009,-0.2078,-0.2152,-0.211,-0.2195,-0.2123,-0.2107,-0.2081,-0.2026,-0.2085,-0.2151,-0.2019,-0.2019,-0.2009,-0.2228,-0.2106,-0.2105,-0.2188,-0.2192,-0.2196,-0.2107,0,-0.1809,-0.1871,-0.1898,-0.1963,-0.2007,-0.2049,-0.2109,-0.2173,-0.2202,-0.2267,-0.2266,-0.2273,-0.2185,-0.2176,-0.2231,-0.2165,-0.2201,-0.2171,-0.2123,-0.212,-0.2039,-0.2124,-0.1953,-0.1858,-0.2119,-0.2121,-0.2122,0,-0.1824,-0.1873,-0.1934,-0.2053,-0.2084,-0.2118,-0.226,-0.231,-0.2416,-0.2445,-0.2498,-0.2469,-0.2505,-0.2421,-0.2424,-0.2413,-0.2338,-0.2297,-0.2293,-0.2153,-0.2025,-0.1834,-0.1869,-0.2142,-0.214,-0.2139,-0.2137,0,-0.1816,-0.191,-0.1967,-0.1992,-0.2108,-0.217,-0.2239,-0.2359,-0.243,-0.2546,-0.2573,-0.2651,-0.2592,-0.2628,-0.2461,-0.2474,-0.2446,-0.2444,-0.2267,-0.2251,-0.2083,-0.2047,-0.2491,-0.2491,-0.2491,-0.2492,-0.2492,0,-0.1824,-0.1875,-0.1966,-0.199,-0.2111,-0.2187,-0.232,-0.2408,-0.2521,-0.2562,-0.2638,-0.2624,-0.2647,-0.2593,-0.2537,-0.2397,-0.2489,-0.2312,-0.2261,-0.2114,-0.2084,-0.2324,-0.2305,-0.2488,-0.2489,-0.249,-0.249,0,-0.1788,-0.1838,-0.1916,-0.2041,-0.2094,-0.2168,-0.2327,-0.2409,-0.2511,-0.2551,-0.2569,-0.2592,-0.2514,-0.2498,-0.2458,-0.2395,-0.2347,-0.2263,-0.2023,-0.195,-0.2093,-0.2083,-0.2138,-0.2133,-0.213,-0.2127,-0.2125,0,-0.1772,-0.1797,-0.1924,-0.1972,-0.2019,-0.2145,-0.2223,-0.2377,-0.2422,-0.2467,-0.2444,-0.2405,-0.2312,-0.223,-0.2165,-0.2099,-0.217,-0.1884,-0.1921,-0.2133,-0.2077,-0.2072,-0.2067,-0.1705,-0.1699,-0.1694,-0.1691,0,-0.1732,-0.1761,-0.182,-0.1913,-0.1986,-0.2094,-0.2183,-0.2184,-0.2276,-0.2303,-0.221,-0.2153,-0.2054,-0.1902,-0.1828,-0.1774,-0.192,-0.1787,-0.211,-0.1829,-0.1722,-0.1667,-0.1677,-0.1649,-0.1653,-0.1656,-0.1659,-0.166,-0.1679,-0.1703,-0.1757,-0.1846,-0.193,-0.1935,-0.1913,-0.197,-0.1966,-0.188,-0.191,-0.179,-0.1768,-0.1593,-0.15,-0.1459,-0.161,-0.1564,-0.158,-0.1601,-0.1577,-0.1471,-0.1339,-0.1341,-0.1343,-0.1344,-0.1346,0,-0.1601,-0.1624,-0.1694,-0.175,-0.1753,-0.1862,-0.1822,-0.1745,-0.161,-0.1608,-0.1548,-0.1359,-0.1258,-0.1269,-0.1139,-0.1124,-0.1142,-0.1084,-0.111,-0.1151,-0.1187,-0.1145,-0.079,-0.0788,-0.0787,-0.0786,0,0,-0.155,-0.1566,-0.1603,-0.1555,-0.1578,-0.1488,-0.139,-0.131,-0.1262,-0.1129,-0.1099,-0.1183,-0.1214,-0.0999,-0.0951,-0.0846,-0.0992,-0.0803,-0.1245,-0.1314,-0.1348,-0.1454,-0.1432,0,0,0,0,0]},{"header":{"parameterUnit":"m.s-1","parameterCategory":2,"la1":30.2991,"la2":30.254,"lo1":-89.0895,"lo2":-89.0444,"dy":0.0017,"dx":0.0017,"nx":28,"ny":28,"refTime":"2025-09-14T03:00:00:Z","depth":"2","parameterNumber":3,"parameterNumberName":"V-component_of_CURRENTS"},"data":[0,0,0,0,0,0,0,0,0,0,0,0,0,0,0,0,0,0,0,0,0,0,0,0,0,0,0,0,0,0,0,0,0,0,0,0,0,0,0,0,0,0,0,0,0,0,0,0,0,0,0,0,0,0,0,0,0,0,-0.0113,-0.0112,0,0.0019,0.0021,0.0023,0.0076,0.0076,0.0075,0.0075,0.0179,0.0182,0.0185,0,0,0,0,0,0,0,0,0,0,0,0,0,-0.0331,-0.0327,-0.0113,-0.0112,-0.0111,0.0019,0.0021,0.0023,0.0077,0.0076,0.0075,0.0074,0.0178,0.0181,0.0185,0,0,0,0,0,0,0,0,0,0,0,0,0,-0.0218,-0.0326,-0.0114,-0.0071,-0.0066,0.0019,0.0021,0.0024,0.0077,0.0076,0.0075,0.0074,0.0176,0.0181,0.0186,0.0235,0,0,0.0201,0.0203,0,0,0,0,0,0,0,0,-0.0225,-0.021,-0.0078,-0.0074,-0.0068,0.0028,-0.0017,0.0092,0.0077,0.0026,0.0075,0.0074,0.0124,0.0133,0.0165,0.024,0.0244,0.0202,0.0205,0.0207,0.0208,0,0,0,0,0,0,0,-0.0233,-0.0215,-0.0058,-0.0077,-0.007,-0.0062,-0.0046,0.0004,0.008,0.003,0.0034,0.0044,0.0127,0.016,0.0168,0.0246,0.0202,0.0206,0.0209,0.0211,0.022,0.0217,0,0,0,0,0,0,-0.0252,-0.0222,-0.0062,-0.0054,-0.0154,-0.0057,-0.004,0.0,0.008,0.0091,0.0045,0.0046,0.0152,0.0162,0.0172,0.0218,0.0207,0.0212,0.0214,0.0223,0.0219,0.0216,0,0,0,0,0,0,-0.0257,-0.0238,-0.0067,-0.014,-0.0118,-0.0053,-0.0008,0.0003,0.0038,0.0091,0.0102,0.0067,0.0152,0.0165,0.0202,0.0223,0.0214,0.0218,0.0226,0.0222,0.0218,0.0321,0,0,0,0,0,0,-0.0263,-0.024,-0.0214,-0.014,-0.0115,-0.0014,-0.0007,0.0007,0.0044,0.0048,0.0114,0.0123,0.0152,0.0194,0.0207,0.0229,0.0222,0.0229,0.0224,0.0219,0.0321,0.0321,0.0321,0,0,0,0,0,-0.0271,-0.0236,-0.0212,-0.0194,-0.0081,-0.0014,0.0001,0.0044,0.0046,0.0071,0.0096,0.0121,0.0168,0.0199,0.0214,0.0238,0.0232,0.0225,0.0219,0.0321,0.0321,0.0321,0,0,0,0,0,0,-0.0318,-0.0225,-0.0198,-0.0136,-0.0079,-0.0006,0.0016,0.0046,0.0091,0.0088,0.0129,0.014,0.0167,0.0166,0.0198,0.0204,0.0187,0.0184,0.0258,0.0259,0.0259,0.026,0.0226,0,0,0,0,0,-0.0316,-0.0263,-0.0183,-0.0135,-0.011,-0.0046,-0.0015,0.002,0.0065,0.0085,0.0133,0.0144,0.0154,0.0179,0.0189,0.0231,0.0238,0.0229,0.0229,0.023,0.0228,0.0285,0.0294,0.0196,0.0196,0.0196,0,0,-0.0314,-0.0266,-0.023,-0.0142,-0.0099,-0.0069,-0.0028,0.0022,0.0047,0.0089,0.0136,0.016,0.0156,0.0189,0.0198,0.0201,0.0249,0.0222,0.0225,0.0222,0.028,0.0291,0.0301,0.0192,0.0193,0.0193,0,0,-0.0314,-0.0251,-0.0215,-0.0173,-0.0111,-0.0077,-0.0066,0.0017,0.0054,0.0111,0.0118,0.0165,0.0194,0.0219,0.0222,0.022,0.0241,0.0187,0.0224,0.0281,0.0293,0.0303,0.0305,0.0315,0.02,0.02,0.02,0,-0.033,-0.0267,-0.0198,-0.0172,-0.0157,-0.009,-0.0076,-0.0021,0.0065,0.0098,0.0119,0.0176,0.0211,0.0236,0.0237,0.0235,0.0239,0.0252,0.0293,0.0303,0.0312,0.0312,0.0322,0.0204,0.0204,0.0203,0.0203,0,-0.0304,-0.0265,-0.025,-0.02,-0.0174,-0.0144,-0.0083,-0.003,0.0017,0.0077,0.0139,0.0204,0.0235,0.0249,0.0263,0.0314,0.0285,0.0294,0.0324,0.033,0.0326,0.0335,0.021,0.0209,0.0208,0.0206,0,0,-0.0326,-0.0247,-0.0244,-0.0247,-0.019,-0.0176,-0.013,-0.0068,-0.0041,0.0072,0.012,0.0195,0.0252,0.0253,0.0285,0.0359,0.045,0.036,0.0361,0.0414,0.0537,0.0512,0.0518,0.0483,0.0485,0.0487,0.0506,0,-0.0339,-0.0318,-0.0269,-0.0275,-0.0275,-0.0213,-0.0186,-0.012,-0.0048,0.0026,0.0133,0.0177,0.024,0.0267,0.0359,0.0419,0.0477,0.0441,0.0474,0.0474,0.0498,0.0529,0.0507,0.0523,0.0514,0.0515,0.0516,0,-0.034,-0.0336,-0.0333,-0.0332,-0.0326,-0.031,-0.0277,-0.0236,-0.0113,-0.0054,0.0049,0.0121,0.0242,0.0288,0.0443,0.0415,0.0475,0.0533,0.0535,0.0485,0.0466,0.051,0.0538,0.053,0.0529,0.0528,0.0527,0,-0.042,-0.0396,-0.0408,-0.04,-0.0368,-0.0349,-0.0331,-0.0242,-0.0221,-0.0097,-0.0064,0.0086,0.0147,0.0286,0.0414,0.0438,0.0559,0.0604,0.0624,0.062,0.0591,0.0582,0.0698,0.0698,0.0698,0.0698,0.0698,0,-0.0467,-0.0479,-0.0437,-0.0441,-0.0473,-0.0418,-0.042,-0.0365,-0.0288,-0.0272,-0.0111,-0.0075,0.0155,0.0254,0.0389,0.0519,0.0537,0.0633,0.0641,0.0616,0.0609,0.0603,0.0591,0.0698,0.0698,0.0698,0.0698,0,-0.0533,-0.0497,-0.0523,-0.05,-0.0502,-0.0518,-0.0507,-0.0505,-0.0414,-0.0386,-0.0355,-0.0194,-0.0038,0.0143,0.0342,0.0455,0.0595,0.0613,0.0539,0.054,0.0626,0.0618,0.0693,0.0692,0.0692,0.0692,0.0692,0,-0.0557,-0.0567,-0.0583,-0.0621,-0.0604,-0.062,-0.0638,-0.0575,-0.0576,-0.0469,-0.047,-0.0313,-0.0193,0.0075,0.0303,0.0517,0.0536,0.0584,0.0658,0.0634,0.0634,0.0627,0.062,0.0642,0.0642,0.0641,0.0641,0,-0.0619,-0.061,-0.064,-0.0718,-0.0751,-0.0802,-0.0809,-0.0826,-0.0746,-0.0688,-0.0599,-0.0482,-0.0213,0.0049,0.0301,0.0431,0.0573,0.0582,0.0594,0.0643,0.0588,0.0587,0.0582,0.0637,0.0637,0.0637,0.0638,0.0638,-0.0671,-0.0718,-0.0759,-0.0843,-0.0892,-0.0953,-0.0968,-0.0958,-0.0934,-0.0807,-0.0711,-0.0492,-0.025,0.0161,0.0339,0.0528,0.0558,0.0632,0.0634,0.0636,0.0623,0.0571,0.061,0.061,0.0611,0.0611,0.0611,0,-0.0768,-0.0808,-0.0894,-0.0986,-0.1063,-0.1049,-0.1069,-0.104,-0.0982,-0.0847,-0.07,-0.0416,-0.0128,0.0126,0.0425,0.0594,0.0612,0.0617,0.0619,0.0622,0.0625,0.0612,0.0596,0.0597,0.0597,0.0597,0,0,-0.0824,-0.0946,-0.1003,-0.114,-0.1171,-0.119,-0.1179,-0.1105,-0.0982,-0.082,-0.0638,-0.0411,-0.0105,0.0102,0.0314,0.0467,0.0501,0.0478,0.0473,0.0454,0.0454,0.0616,0.0597,0,0,0,0,0]}],[{"header":{"parameterUnit":"m.s-1","parameterCategory":2,"la1":30.2991,"la2":30.254,"lo1":-89.0895,"lo2":-89.0444,"dy":0.0017,"dx":0.0017,"nx":28,"ny":28,"refTime":"2025-09-14T03:00:00:Z","depth":"4","parameterNumber":2,"parameterNumberName":"U-component_of_CURRENTS"},"data":[0,0,0,0,0,0,0,0,0,0,0,0,0,0,0,0,0,0,0,0,0,0,0,0,0,0,0,0,0,0,0,0,0,0,0,0,0,0,0,0,0,0,0,0,0,0,0,0,0,0,0,0,0,0,0,0,0,0,-0.0919,-0.0919,0,-0.0933,-0.0933,-0.0934,-0.0949,-0.095,-0.095,-0.095,-0.0998,-0.1,-0.1001,0,0,0,0,0,0,0,0,0,0,0,0,0,-0.0901,-0.0901,-0.0919,-0.0919,-0.092,-0.0933,-0.0933,-0.0934,-0.0949,-0.095,-0.095,-0.095,-0.0998,-0.0999,-0.1001,0,0,0,0,0,0,0,0,0,0,0,0,0,-0.0912,-0.0901,-0.0919,-0.0928,-0.0929,-0.0933,-0.0933,-0.0934,-0.0949,-0.095,-0.095,-0.095,-0.0998,-0.0999,-0.1001,-0.1008,0,0,-0.1007,-0.1007,0,0,0,0,0,0,0,0,-0.0912,-0.0913,-0.0927,-0.0927,-0.0928,-0.0939,-0.0945,-0.096,-0.0949,-0.0943,-0.095,-0.095,-0.0981,-0.0984,-0.0987,-0.1011,-0.1013,-0.1007,-0.1008,-0.1009,-0.1009,0,0,0,0,0,0,0,-0.0911,-0.0913,-0.0926,-0.0927,-0.0928,-0.0929,-0.0931,-0.0948,-0.0962,-0.0943,-0.0944,-0.0944,-0.0982,-0.0986,-0.0989,-0.1013,-0.1007,-0.1008,-0.1009,-0.101,-0.1127,-0.1129,0,0,0,0,0,0,-0.0907,-0.0912,-0.0926,-0.0926,-0.0919,-0.0929,-0.0932,-0.0936,-0.0961,-0.0965,-0.0944,-0.0945,-0.0982,-0.0987,-0.0991,-0.1072,-0.1008,-0.101,-0.1011,-0.1125,-0.1127,-0.113,0,0,0,0,0,0,-0.0907,-0.0908,-0.0925,-0.0918,-0.092,-0.0929,-0.0934,-0.0936,-0.0952,-0.0961,-0.0965,-0.0958,-0.0983,-0.0988,-0.1036,-0.1071,-0.1011,-0.1013,-0.1122,-0.1126,-0.1128,-0.1189,0,0,0,0,0,0,-0.0906,-0.0908,-0.0917,-0.0918,-0.092,-0.0941,-0.0934,-0.0936,-0.095,-0.0951,-0.0975,-0.0978,-0.0983,-0.1033,-0.1038,-0.1073,-0.1014,-0.112,-0.1124,-0.1128,-0.1185,-0.1194,-0.1202,0,0,0,0,0,-0.0905,-0.0909,-0.0917,-0.0919,-0.093,-0.0941,-0.0944,-0.0951,-0.095,-0.0964,-0.0992,-0.0978,-0.1061,-0.1037,-0.1041,-0.1077,-0.1118,-0.1123,-0.1127,-0.1181,-0.1192,-0.1202,0,0,0,0,0,0,-0.0906,-0.0911,-0.092,-0.0926,-0.0942,-0.0944,-0.095,-0.0958,-0.0987,-0.0996,-0.1003,-0.101,-0.1067,-0.1065,-0.1038,-0.1124,-0.1087,-0.1093,-0.1127,-0.1137,-0.1146,-0.1123,-0.1015,0,0,0,0,0,-0.091,-0.0918,-0.0926,-0.0937,-0.0939,-0.0949,-0.0955,-0.0968,-0.0988,-0.1001,-0.102,-0.1049,-0.1087,-0.1106,-0.1133,-0.1176,-0.1166,-0.1204,-0.1213,-0.122,-0.1206,-0.1214,-0.1221,-0.1145,-0.1145,-0.1145,0,0,-0.0915,-0.0918,-0.0925,-0.0938,-0.0944,-0.0965,-0.0954,-0.0973,-0.1005,-0.1003,-0.1054,-0.1079,-0.1106,-0.1163,-0.1187,-0.1167,-0.1247,-0.1226,-0.1232,-0.1213,-0.1219,-0.1226,-0.1233,-0.1148,-0.1147,-0.1147,0,0,-0.0915,-0.0929,-0.0931,-0.0949,-0.0966,-0.0982,-0.0991,-0.101,-0.1033,-0.1083,-0.1101,-0.1145,-0.119,-0.1223,-0.1243,-0.1313,-0.1293,-0.1329,-0.1353,-0.1362,-0.1368,-0.1372,-0.1407,-0.1414,-0.1332,-0.1333,-0.1333,0,-0.0921,-0.0928,-0.0936,-0.0947,-0.0966,-0.0992,-0.1012,-0.1044,-0.1086,-0.1111,-0.1108,-0.1196,-0.1216,-0.129,-0.1318,-0.1331,-0.1336,-0.1311,-0.1371,-0.1375,-0.1379,-0.1412,-0.1419,-0.1336,-0.1336,-0.1335,-0.1335,0,-0.0921,-0.094,-0.0942,-0.0972,-0.0999,-0.1022,-0.1066,-0.1106,-0.1136,-0.1165,-0.1238,-0.1273,-0.1321,-0.1345,-0.1351,-0.1405,-0.1404,-0.138,-0.1338,-0.1389,-0.1423,-0.1429,-0.1341,-0.134,-0.1339,-0.1338,0,0,-0.0898,-0.0934,-0.0938,-0.0962,-0.1017,-0.1039,-0.1104,-0.1161,-0.1198,-0.1255,-0.1295,-0.1375,-0.139,-0.1413,-0.1438,-0.1444,-0.149,-0.1422,-0.142,-0.1444,-0.1529,-0.143,-0.1427,-0.1471,-0.1472,-0.1473,-0.1556,0,-0.0896,-0.0915,-0.0945,-0.0997,-0.1015,-0.1076,-0.1133,-0.12,-0.1245,-0.1293,-0.1348,-0.1403,-0.1421,-0.1448,-0.1465,-0.1475,-0.1502,-0.147,-0.1484,-0.1485,-0.1379,-0.1428,-0.1474,-0.156,-0.1561,-0.1562,-0.1563,0,-0.0885,-0.0902,-0.0934,-0.1009,-0.1023,-0.1075,-0.1163,-0.1218,-0.1301,-0.1333,-0.1398,-0.1432,-0.1499,-0.1476,-0.1542,-0.1521,-0.1532,-0.1531,-0.1534,-0.1412,-0.1394,-0.1489,-0.1573,-0.1572,-0.1571,-0.1571,-0.157,0,-0.0848,-0.0903,-0.093,-0.0955,-0.1038,-0.1084,-0.1144,-0.1232,-0.1272,-0.136,-0.1387,-0.1471,-0.1525,-0.1535,-0.1578,-0.1554,-0.1616,-0.1584,-0.152,-0.1516,-0.1552,-0.1546,-0.1614,-0.1614,-0.1614,-0.1614,-0.1614,0,-0.0825,-0.0852,-0.0921,-0.0935,-0.0991,-0.1069,-0.1132,-0.12,-0.1277,-0.1336,-0.141,-0.1468,-0.1535,-0.1589,-0.1589,-0.1586,-0.1646,-0.1525,-0.152,-0.1584,-0.158,-0.1559,-0.1551,-0.1617,-0.1616,-0.1616,-0.1615,0,-0.0772,-0.0812,-0.085,-0.0937,-0.0968,-0.1013,-0.1114,-0.1148,-0.1247,-0.1317,-0.1351,-0.1481,-0.1558,-0.1611,-0.1655,-0.1614,-0.1602,-0.1592,-0.1694,-0.1695,-0.1495,-0.1491,-0.1502,-0.1499,-0.1497,-0.1495,-0.1493,0,-0.074,-0.0752,-0.0833,-0.0854,-0.0896,-0.0969,-0.1008,-0.1115,-0.1154,-0.133,-0.1352,-0.1479,-0.1558,-0.1558,-0.1611,-0.1611,-0.1591,-0.1587,-0.1493,-0.1484,-0.148,-0.1479,-0.1478,-0.1489,-0.1488,-0.1487,-0.1487,0,-0.068,-0.0716,-0.0745,-0.0782,-0.0827,-0.0874,-0.0952,-0.0975,-0.112,-0.1209,-0.1327,-0.1383,-0.1475,-0.1515,-0.154,-0.1534,-0.157,-0.1559,-0.1562,-0.1475,-0.1468,-0.1466,-0.1468,-0.1478,-0.1479,-0.148,-0.148,0,-0.064,-0.0646,-0.0679,-0.0713,-0.0752,-0.0783,-0.084,-0.0915,-0.0974,-0.1171,-0.1224,-0.1365,-0.1492,-0.148,-0.15,-0.1482,-0.1436,-0.1369,-0.1382,-0.1392,-0.131,-0.1282,-0.123,0,0,0,0,0,-0.0598,-0.0591,-0.0606,-0.0633,-0.0665,-0.0694,-0.0796,-0.0861,-0.1007,-0.1051,-0.1135,-0.122,-0.1286,-0.1354,-0.1305,-0.1414,-0.1419,-0.1348,-0.1344,-0.1428,-0.1438,-0.1347,0,0,0,0,0,0,-0.057,-0.0573,-0.0575,-0.055,-0.0555,-0.0587,-0.0657,-0.0766,-0.08,-0.0963,-0.1,-0.1115,-0.1181,-0.1286,-0.127,-0.1283,-0.1249,-0.1422,-0.1418,-0.1422,-0.1432,-0.144,-0.1349,0,0,0,0,0]},{"header":{"parameterUnit":"m.s-1","parameterCategory":2,"la1":30.2991,"la2":30.254,"lo1":-89.0895,"lo2":-89.0444,"dy":0.0017,"dx":0.0017,"nx":28,"ny":28,"refTime":"2025-09-14T03:00:00:Z","depth":"4","parameterNumber":3,"parameterNumberName":"V-component_of_CURRENTS"},"data":[0,0,0,0,0,0,0,0,0,0,0,0,0,0,0,0,0,0,0,0,0,0,0,0,0,0,0,0,0,0,0,0,0,0,0,0,0,0,0,0,0,0,0,0,0,0,0,0,0,0,0,0,0,0,0,0,0,0,-0.0214,-0.0214,0,-0.0254,-0.0254,-0.0255,-0.0241,-0.024,-0.0239,-0.0238,-0.0194,-0.0194,-0.0194,0,0,0,0,0,0,0,0,0,0,0,0,0,-0.0165,-0.0165,-0.0213,-0.0214,-0.0214,-0.0254,-0.0254,-0.0255,-0.0241,-0.024,-0.0239,-0.0237,-0.0195,-0.0194,-0.0194,0,0,0,0,0,0,0,0,0,0,0,0,0,-0.0194,-0.0166,-0.0213,-0.0212,-0.0212,-0.0253,-0.0254,-0.0255,-0.0241,-0.024,-0.0238,-0.0237,-0.0195,-0.0194,-0.0194,-0.022,0,0,-0.0193,-0.0192,0,0,0,0,0,0,0,0,-0.0192,-0.0196,-0.0211,-0.0212,-0.0212,-0.024,-0.0221,-0.0239,-0.0242,-0.0231,-0.0238,-0.0236,-0.0203,-0.0202,-0.0214,-0.0218,-0.0216,-0.0193,-0.0192,-0.0192,-0.0192,0,0,0,0,0,0,0,-0.019,-0.0194,-0.023,-0.0212,-0.0212,-0.0222,-0.0225,-0.0225,-0.0223,-0.0232,-0.023,-0.0234,-0.0202,-0.0215,-0.0213,-0.0215,-0.0193,-0.0192,-0.0192,-0.0192,-0.0179,-0.0179,0,0,0,0,0,0,-0.0184,-0.0192,-0.0229,-0.0231,-0.0198,-0.0224,-0.0227,-0.0233,-0.0225,-0.0223,-0.0236,-0.0234,-0.0216,-0.0214,-0.0211,-0.0214,-0.0192,-0.0192,-0.0192,-0.0179,-0.0179,-0.0179,0,0,0,0,0,0,-0.0182,-0.0187,-0.0227,-0.0212,-0.0217,-0.0226,-0.0234,-0.0235,-0.0245,-0.0229,-0.0225,-0.0244,-0.0215,-0.0212,-0.0206,-0.0213,-0.0192,-0.0191,-0.0179,-0.0179,-0.0179,-0.0237,0,0,0,0,0,0,-0.0181,-0.0186,-0.0191,-0.0212,-0.0218,-0.026,-0.0235,-0.0236,-0.025,-0.0247,-0.0235,-0.023,-0.0214,-0.0207,-0.0206,-0.0212,-0.0191,-0.0179,-0.0179,-0.0179,-0.0235,-0.0239,-0.0242,0,0,0,0,0,-0.0179,-0.02,-0.0191,-0.0195,-0.0224,-0.0261,-0.0266,-0.0267,-0.0252,-0.0269,-0.0248,-0.023,-0.0204,-0.0207,-0.0206,-0.0212,-0.0179,-0.0179,-0.0179,-0.0234,-0.0238,-0.0242,0,0,0,0,0,0,-0.0186,-0.0202,-0.0191,-0.0216,-0.0236,-0.0258,-0.0277,-0.0273,-0.0275,-0.0267,-0.0241,-0.0235,-0.023,-0.0212,-0.0216,-0.0204,-0.0184,-0.0184,-0.0227,-0.0231,-0.0234,-0.025,-0.0191,0,0,0,0,0,-0.0188,-0.0205,-0.022,-0.024,-0.0251,-0.0262,-0.0276,-0.028,-0.0284,-0.0284,-0.0272,-0.0249,-0.0231,-0.0224,-0.0212,-0.0215,-0.0179,-0.0212,-0.0216,-0.0219,-0.0229,-0.021,-0.0213,-0.0178,-0.0178,-0.0178,0,0,-0.0195,-0.0206,-0.0215,-0.0242,-0.0257,-0.0284,-0.0268,-0.03,-0.0313,-0.0278,-0.0289,-0.0267,-0.0235,-0.0233,-0.0228,-0.0218,-0.0197,-0.0219,-0.0222,-0.023,-0.021,-0.0213,-0.0216,-0.0178,-0.0178,-0.0178,0,0,-0.0232,-0.023,-0.026,-0.0278,-0.0304,-0.031,-0.0318,-0.0341,-0.034,-0.0351,-0.0318,-0.0304,-0.0287,-0.0268,-0.0251,-0.0267,-0.0218,-0.0253,-0.0286,-0.0267,-0.0271,-0.0273,-0.0182,-0.0176,-0.0253,-0.0253,-0.0254,0,-0.0238,-0.0274,-0.0276,-0.0311,-0.0327,-0.032,-0.0356,-0.036,-0.0375,-0.0377,-0.0357,-0.0329,-0.0304,-0.0293,-0.0292,-0.0278,-0.0234,-0.0277,-0.0274,-0.0276,-0.0278,-0.0184,-0.0177,-0.0256,-0.0256,-0.0256,-0.0255,0,-0.0299,-0.0323,-0.0346,-0.0376,-0.0395,-0.0428,-0.043,-0.0441,-0.0429,-0.0429,-0.0421,-0.0388,-0.0371,-0.0353,-0.0327,-0.0323,-0.0273,-0.0284,-0.027,-0.0285,-0.0184,-0.0175,-0.026,-0.0259,-0.0258,-0.0258,0,0,-0.0322,-0.0376,-0.0383,-0.0407,-0.0431,-0.0458,-0.0472,-0.0491,-0.05,-0.0491,-0.0496,-0.0464,-0.0446,-0.0426,-0.0389,-0.0368,-0.0322,-0.0334,-0.0331,-0.0251,-0.0224,-0.02,-0.0187,-0.0339,-0.0339,-0.0339,-0.013,0,-0.0366,-0.0437,-0.0451,-0.0508,-0.0541,-0.0537,-0.0555,-0.0565,-0.0553,-0.0553,-0.0513,-0.0504,-0.0471,-0.0459,-0.0435,-0.0353,-0.031,-0.0373,-0.0213,-0.0207,-0.0194,-0.0183,-0.034,-0.0123,-0.0121,-0.012,-0.0119,0,-0.042,-0.0458,-0.0525,-0.0573,-0.0588,-0.062,-0.0641,-0.0656,-0.0644,-0.0633,-0.0614,-0.0578,-0.0528,-0.0509,-0.0378,-0.0419,-0.0331,-0.0263,-0.0254,-0.0216,-0.0171,-0.0114,-0.0103,-0.0104,-0.0105,-0.0106,-0.0107,0,-0.0438,-0.0509,-0.0562,-0.0579,-0.063,-0.0659,-0.0682,-0.0687,-0.0696,-0.0682,-0.0668,-0.0619,-0.056,-0.0486,-0.0326,-0.036,-0.0161,-0.0191,-0.0074,-0.0067,-0.0125,-0.0125,-0.0114,-0.0115,-0.0115,-0.0116,-0.0116,0,-0.0475,-0.0519,-0.058,-0.0609,-0.0675,-0.0696,-0.0747,-0.0757,-0.0757,-0.0752,-0.0712,-0.0665,-0.0558,-0.0426,-0.0322,-0.0141,-0.0149,-0.007,-0.003,-0.0144,-0.0149,-0.0115,-0.0118,-0.0108,-0.011,-0.0111,-0.0112,0,-0.0488,-0.0527,-0.0594,-0.0661,-0.0689,-0.0735,-0.0794,-0.0816,-0.0808,-0.079,-0.0783,-0.0674,-0.0508,-0.036,-0.0179,-0.0105,0.0038,0.0104,0.0044,0.0078,0.0124,0.0116,0.0229,0.0231,0.0233,0.0235,0.0236,0,-0.0504,-0.0539,-0.063,-0.0676,-0.0714,-0.0781,-0.0821,-0.0844,-0.0849,-0.0778,-0.0754,-0.0599,-0.0508,-0.0196,-0.0075,0.0146,0.0153,0.0246,0.01,0.0122,0.0151,0.014,0.013,0.0239,0.024,0.024,0.024,0,-0.0525,-0.0558,-0.0608,-0.0701,-0.0763,-0.0821,-0.0869,-0.0872,-0.086,-0.0848,-0.0707,-0.0568,-0.0357,-0.0171,0.0026,0.0162,0.0177,0.0264,0.0259,0.0123,0.0136,0.016,0.0148,0.0247,0.0246,0.0245,0.0245,0,-0.0534,-0.0574,-0.0642,-0.0719,-0.0795,-0.0835,-0.0864,-0.0845,-0.084,-0.076,-0.0696,-0.0501,-0.0384,-0.0155,0.0017,0.0162,0.015,0.0156,0.0156,0.015,0.0033,0.0031,0.0151,0,0,0,0,0,-0.0537,-0.058,-0.0657,-0.0736,-0.0805,-0.0846,-0.088,-0.089,-0.0864,-0.0766,-0.0736,-0.0547,-0.0291,-0.0173,-0.0027,0.0012,0.0159,0.0184,0.0161,0.0282,0.0275,0.0146,0,0,0,0,0,0,-0.0545,-0.0607,-0.0649,-0.0725,-0.0779,-0.0843,-0.0864,-0.0849,-0.0791,-0.0743,-0.0599,-0.053,-0.0276,-0.0369,-0.0026,0.0017,0.0017,0.0303,0.0306,0.0286,0.028,0.0274,0.0139,0,0,0,0,0]}]]